2016-01-20 00:03:01 r, 13.76m,0000000280Hz,0000000000c,0000000.000s, 006.7C,00002195
2016-01-20 00:13:02 r, 13.70m,0000000294Hz,0000000000c,0000000.000s, 006.7C,00002195
2016-01-20 00:23:02 r, 13.69m,0000000296Hz,0000000000c,0000000.000s, 006.7C,00002195
2016-01-20 00:33:01 r, 13.78m,0000000275Hz,0000000000c,0000000.000s, 006.7C,00002195
2016-01-20 00:43:01 r, 13.81m,0000000266Hz,0000000000c,0000000.000s, 006.7C,00002195
2016-01-20 00:53:03 r, 13.65m,0000000308Hz,0000000000c,0000000.000s, 006.7C,00002195
2016-01-20 01:03:01 r, 13.59m,0000000326Hz,0000000000c,0000000.000s, 006.7C,00002195
2016-01-20 01:13:01 r, 13.69m,0000000297Hz,0000000000c,0000000.000s, 007.0C,00002195
2016-01-20 01:23:03 r, 13.72m,0000000288Hz,0000000000c,0000000.000s, 007.0C,00002195
2016-01-20 01:33:01 r, 13.65m,0000000309Hz,0000000000c,0000000.000s, 007.0C,00002195
2016-01-20 01:43:01 r, 13.54m,0000000343Hz,0000000000c,0000000.000s, 007.4C,00002195
2016-01-20 01:53:02 r, 13.76m,0000000281Hz,0000000000c,0000000.000s, 007.4C,00002195
2016-01-20 02:03:01 r, 13.60m,0000000324Hz,0000000000c,0000000.000s, 007.4C,00002195
2016-01-20 02:13:03 r, 13.66m,0000000307Hz,0000000000c,0000000.000s, 007.4C,00002195
2016-01-20 02:23:02 r, 13.84m,0000000259Hz,0000000000c,0000000.000s, 007.7C,00002195
2016-01-20 02:33:01 r, 13.71m,0000000293Hz,0000000000c,0000000.000s, 007.7C,00002195
2016-01-20 02:43:02 r, 13.67m,0000000303Hz,0000000000c,0000000.000s, 007.7C,00002195
2016-01-20 02:53:02 r, 13.69m,0000000297Hz,0000000000c,0000000.000s, 008.0C,00002195
2016-01-20 03:03:01 r, 13.52m,0000000349Hz,0000000000c,0000000.000s, 007.7C,00002195
2016-01-20 03:13:02 r, 13.56m,0000000334Hz,0000000000c,0000000.000s, 007.7C,00002195
2016-01-20 03:23:01 r, 13.79m,0000000271Hz,0000000000c,0000000.000s, 007.7C,00002195
2016-01-20 03:33:01 r, 13.72m,0000000291Hz,0000000000c,0000000.000s, 008.0C,00002195
2016-01-20 03:43:03 r, 13.92m,0000000240Hz,0000000000c,0000000.000s, 008.0C,00002195
2016-01-20 03:53:02 r, 13.63m,0000000314Hz,0000000000c,0000000.000s, 008.0C,00002195
2016-01-20 04:03:01 r, 13.83m,0000000263Hz,0000000000c,0000000.000s, 008.0C,00002195
2016-01-20 04:13:03 r, 14.00m,0000000223Hz,0000000000c,0000000.000s, 008.0C,00002195
2016-01-20 04:23:02 r, 13.86m,0000000254Hz,0000000000c,0000000.000s, 008.0C,00002195
2016-01-20 04:33:01 r, 13.78m,0000000275Hz,0000000000c,0000000.000s, 008.0C,00002195
2016-01-20 04:43:01 r, 13.57m,0000000332Hz,0000000000c,0000000.000s, 008.0C,00002195
2016-01-20 04:53:02 r, 13.69m,0000000297Hz,0000000000c,0000000.000s, 008.0C,00002195
2016-01-20 05:03:01 r, 13.81m,0000000266Hz,0000000000c,0000000.000s, 008.0C,00002195
2016-01-20 05:13:01 r, 13.74m,0000000284Hz,0000000000c,0000000.000s, 008.0C,00002195
2016-01-20 05:23:03 r, 13.73m,0000000286Hz,0000000000c,0000000.000s, 008.3C,00002195
2016-01-20 05:33:01 r, 13.74m,0000000285Hz,0000000000c,0000000.000s, 008.3C,00002195
2016-01-20 05:43:01 r, 13.71m,0000000293Hz,0000000000c,0000000.000s, 008.3C,00002195
2016-01-20 05:53:02 r, 13.79m,0000000271Hz,0000000000c,0000000.000s, 008.3C,00002195
2016-01-20 06:03:01 r, 13.50m,0000000352Hz,0000000000c,0000000.000s, 008.0C,00002195
2016-01-20 06:13:01 r, 13.95m,0000000234Hz,0000000000c,0000000.000s, 008.3C,00002195
2016-01-20 06:23:02 r, 13.87m,0000000251Hz,0000000000c,0000000.000s, 008.0C,00002195
2016-01-20 06:33:01 r, 13.73m,0000000287Hz,0000000000c,0000000.000s, 008.0C,00002195
2016-01-20 06:43:01 r, 13.93m,0000000237Hz,0000000000c,0000000.000s, 008.3C,00002195
2016-01-20 06:53:02 r, 13.90m,0000000245Hz,0000000000c,0000000.000s, 008.3C,00002195
2016-01-20 07:03:01 r, 13.89m,0000000247Hz,0000000000c,0000000.000s, 008.3C,00002195
2016-01-20 07:13:01 r, 13.95m,0000000234Hz,0000000000c,0000000.000s, 008.3C,00002195
2016-01-20 07:23:03 r, 13.70m,0000000294Hz,0000000000c,0000000.000s, 008.3C,00002195
2016-01-20 07:33:01 r, 13.31m,0000000420Hz,0000000000c,0000000.000s, 008.3C,00002195
2016-01-20 07:43:01 r, 12.07m,0000001332Hz,0000000000c,0000000.000s, 008.3C,00002195
2016-01-20 07:53:03 r, 10.37m,0000006321Hz,0000000000c,0000000.000s, 008.3C,00002195
2016-01-20 08:03:01 r, 08.93m,0000023706Hz,0000000000c,0000000.000s, 008.3C,00002195
2016-01-20 08:13:01 r, 07.71m,0000073242Hz,0000000000c,0000000.000s, 008.7C,00002195
2016-01-20 08:23:02 r, 06.92m,0000152572Hz,0000000000c,0000000.000s, 008.7C,00002195
2016-01-20 08:33:01 r, 06.23m,0000287364Hz,0000000000c,0000000.000s, 009.0C,00002195
2016-01-20 08:43:01 r, 00.00m,0000509382Hz,0000000000c,0000000.000s, 009.0C,00002195
2016-01-20 08:53:01 r, 00.00m,0000561765Hz,0000000000c,0000000.000s, 009.3C,00002195
2016-01-20 09:03:01 r, 00.00m,0000561700Hz,0000000000c,0000000.000s, 009.3C,00002195
2016-01-20 09:13:01 r, 00.00m,0000561717Hz,0000000000c,0000000.000s, 009.6C,00002195
2016-01-20 09:23:02 r, 00.00m,0000561791Hz,0000000000c,0000000.000s, 009.6C,00002195
2016-01-20 09:33:01 r, 00.00m,0000561850Hz,0000000000c,0000000.000s, 009.9C,00002195
2016-01-20 09:43:01 r, 00.00m,0000561883Hz,0000000000c,0000000.000s, 010.3C,00002195
2016-01-20 09:53:03 r, 00.00m,0000561924Hz,0000000000c,0000000.000s, 010.6C,00002195
2016-01-20 10:03:01 r, 00.00m,0000562102Hz,0000000000c,0000000.000s, 010.6C,00002195
2016-01-20 10:13:01 r, 00.00m,0000562105Hz,0000000000c,0000000.000s, 010.9C,00002195
2016-01-20 10:23:01 r, 00.00m,0000562023Hz,0000000000c,0000000.000s, 011.2C,00002195
2016-01-20 10:33:01 r, 00.00m,0000562046Hz,0000000000c,0000000.000s, 011.6C,00002195
2016-01-20 10:43:01 r, 00.00m,0000562045Hz,0000000000c,0000000.000s, 011.6C,00002195
2016-01-20 10:53:02 r, 00.00m,0000562125Hz,0000000000c,0000000.000s, 011.6C,00002195
2016-01-20 11:03:02 r, 00.00m,0000562238Hz,0000000000c,0000000.000s, 012.2C,00002195
2016-01-20 11:13:02 r, 00.00m,0000562280Hz,0000000000c,0000000.000s, 012.5C,00002195
2016-01-20 11:23:02 r, 00.00m,0000562338Hz,0000000000c,0000000.000s, 013.2C,00002195
2016-01-20 11:33:02 r, 00.00m,0000562230Hz,0000000000c,0000000.000s, 012.8C,00002195
2016-01-20 11:43:01 r, 00.00m,0000562293Hz,0000000000c,0000000.000s, 012.8C,00002195
2016-01-20 11:53:01 r, 00.00m,0000562285Hz,0000000000c,0000000.000s, 012.8C,00002195
2016-01-20 12:03:02 r, 00.00m,0000562301Hz,0000000000c,0000000.000s, 013.2C,00002195
2016-01-20 12:13:02 r, 00.00m,0000562458Hz,0000000000c,0000000.000s, 013.8C,00002195
2016-01-20 12:23:04 r, 00.00m,0000562422Hz,0000000000c,0000000.000s, 013.8C,00002195
2016-01-20 12:33:02 r, 00.00m,0000562423Hz,0000000000c,0000000.000s, 013.8C,00002195
2016-01-20 12:43:01 r, 00.00m,0000562495Hz,0000000000c,0000000.000s, 013.8C,00002195
2016-01-20 12:53:04 r, 00.00m,0000562469Hz,0000000000c,0000000.000s, 013.5C,00002195
2016-01-20 13:03:02 r, 00.00m,0000562469Hz,0000000000c,0000000.000s, 013.5C,00002195
2016-01-20 13:13:01 r, 00.00m,0000562530Hz,0000000000c,0000000.000s, 014.1C,00002195
2016-01-20 13:23:02 r, 00.00m,0000562501Hz,0000000000c,0000000.000s, 014.1C,00002195
2016-01-20 13:33:04 r, 00.00m,0000562442Hz,0000000000c,0000000.000s, 014.1C,00002195
2016-01-20 13:43:01 r, 00.00m,0000562537Hz,0000000000c,0000000.000s, 014.1C,00002195
2016-01-20 13:53:01 r, 00.00m,0000562454Hz,0000000000c,0000000.000s, 013.8C,00002195
2016-01-20 14:03:04 r, 00.00m,0000562467Hz,0000000000c,0000000.000s, 013.8C,00002195
2016-01-20 14:13:01 r, 00.00m,0000562329Hz,0000000000c,0000000.000s, 013.8C,00002195
2016-01-20 14:23:02 r, 00.00m,0000562429Hz,0000000000c,0000000.000s, 013.8C,00002195
2016-01-20 14:33:02 r, 00.00m,0000562403Hz,0000000000c,0000000.000s, 013.8C,00002195
2016-01-20 14:43:01 r, 00.00m,0000562431Hz,0000000000c,0000000.000s, 013.5C,00002195
2016-01-20 14:53:04 r, 00.00m,0000562404Hz,0000000000c,0000000.000s, 013.5C,00002195
2016-01-20 15:03:02 r, 00.00m,0000562382Hz,0000000000c,0000000.000s, 013.2C,00002195
2016-01-20 15:13:01 r, 00.00m,0000562439Hz,0000000000c,0000000.000s, 013.2C,00002195
2016-01-20 15:23:03 r, 00.00m,0000562222Hz,0000000000c,0000000.000s, 012.8C,00002195
2016-01-20 15:33:01 r, 00.00m,0000562173Hz,0000000000c,0000000.000s, 012.5C,00002195
2016-01-20 15:43:01 r, 00.00m,0000562133Hz,0000000000c,0000000.000s, 012.2C,00002195
2016-01-20 15:53:02 r, 00.00m,0000562081Hz,0000000000c,0000000.000s, 012.2C,00002195
2016-01-20 16:03:02 r, 00.00m,0000562085Hz,0000000000c,0000000.000s, 011.9C,00002195
2016-01-20 16:13:01 r, 00.00m,0000562042Hz,0000000000c,0000000.000s, 011.6C,00002195
2016-01-20 16:23:04 r, 00.00m,0000546789Hz,0000000000c,0000000.000s, 011.6C,00002195
2016-01-20 16:33:01 r, 00.00m,0000455839Hz,0000000000c,0000000.000s, 011.2C,00002195
2016-01-20 16:43:01 r, 06.29m,0000272373Hz,0000000000c,0000000.000s, 011.2C,00002195
2016-01-20 16:53:01 r, 06.91m,0000153889Hz,0000000000c,0000000.000s, 010.9C,00002195
2016-01-20 17:03:02 r, 07.73m,0000071797Hz,0000000000c,0000000.000s, 010.9C,00002195
2016-01-20 17:13:01 r, 08.75m,0000028091Hz,0000000000c,0000000.000s, 010.6C,00002195
2016-01-20 17:23:04 r, 10.25m,0000007095Hz,0000000000c,0000000.000s, 010.6C,00002195
2016-01-20 17:33:01 r, 11.89m,0000001557Hz,0000000000c,0000000.000s, 010.9C,00002195
2016-01-20 17:43:01 r, 13.18m,0000000476Hz,0000000000c,0000000.000s, 010.6C,00002195
2016-01-20 17:53:02 r, 13.72m,0000000288Hz,0000000000c,0000000.000s, 010.6C,00002195
2016-01-20 18:03:02 r, 14.10m,0000000203Hz,0000000000c,0000000.000s, 010.6C,00002195
2016-01-20 18:13:01 r, 14.29m,0000000171Hz,0000000000c,0000000.000s, 010.6C,00002195
2016-01-20 18:23:01 r, 14.42m,0000000152Hz,0000000000c,0000000.000s, 010.3C,00002195
2016-01-20 18:33:04 r, 14.41m,0000000153Hz,0000000000c,0000000.000s, 010.3C,00002195
2016-01-20 18:43:01 r, 14.48m,0000000144Hz,0000000000c,0000000.000s, 010.3C,00002195
2016-01-20 18:53:02 r, 14.36m,0000000161Hz,0000000000c,0000000.000s, 010.3C,00002195
2016-01-20 19:03:02 r, 14.27m,0000000174Hz,0000000000c,0000000.000s, 010.3C,00002195
2016-01-20 19:13:01 r, 14.30m,0000000169Hz,0000000000c,0000000.000s, 010.3C,00002195
2016-01-20 19:23:01 r, 14.48m,0000000144Hz,0000000000c,0000000.000s, 010.3C,00002195
2016-01-20 19:33:02 r, 14.91m,0000000096Hz,0000004823c,0000000.010s, 010.3C,00002195
2016-01-20 19:43:02 r, 15.19m,0000000075Hz,0000006177c,0000000.013s, 010.3C,00002195
2016-01-20 19:53:03 r, 15.32m,0000000066Hz,0000006998c,0000000.015s, 010.3C,00002195
2016-01-20 20:03:02 r, 16.02m,0000000035Hz,0000013322c,0000000.029s, 010.3C,00002195
2016-01-20 20:13:01 r, 15.94m,0000000037Hz,0000012464c,0000000.027s, 009.9C,00002195
2016-01-20 20:23:01 r, 15.73m,0000000045Hz,0000010182c,0000000.022s, 009.6C,00002195
2016-01-20 20:33:01 r, 15.78m,0000000043Hz,0000010730c,0000000.023s, 009.6C,00002195
2016-01-20 20:43:01 r, 15.55m,0000000053Hz,0000008675c,0000000.019s, 009.3C,00002195
2016-01-20 20:53:01 r, 15.75m,0000000044Hz,0000010457c,0000000.023s, 009.3C,00002195
2016-01-20 21:03:04 r, 15.60m,0000000051Hz,0000009109c,0000000.020s, 009.0C,00002195
2016-01-20 21:13:01 r, 15.59m,0000000052Hz,0000008983c,0000000.019s, 009.0C,00002195
2016-01-20 21:23:01 r, 15.61m,0000000050Hz,0000009168c,0000000.020s, 008.7C,00002195
2016-01-20 21:33:03 r, 15.37m,0000000064Hz,0000007353c,0000000.016s, 008.7C,00002195
2016-01-20 21:43:01 r, 15.45m,0000000059Hz,0000007917c,0000000.017s, 008.7C,00002195
2016-01-20 21:53:01 r, 15.17m,0000000076Hz,0000006105c,0000000.013s, 008.7C,00002195
2016-01-20 22:03:01 r, 15.19m,0000000074Hz,0000006228c,0000000.014s, 008.7C,00002195
2016-01-20 22:13:01 r, 15.14m,0000000078Hz,0000005905c,0000000.013s, 008.7C,00002195
2016-01-20 22:23:01 r, 14.77m,0000000108Hz,0000004197c,0000000.009s, 008.7C,00002195
2016-01-20 22:33:02 r, 14.86m,0000000100Hz,0000004587c,0000000.010s, 008.7C,00002195
2016-01-20 22:43:01 r, 14.20m,0000000186Hz,0000000000c,0000000.000s, 009.0C,00002195
2016-01-20 22:53:01 r, 13.95m,0000000234Hz,0000000000c,0000000.000s, 009.0C,00002195
2016-01-20 23:03:01 r, 14.03m,0000000217Hz,0000000000c,0000000.000s, 009.0C,00002195
2016-01-20 23:13:01 r, 13.99m,0000000225Hz,0000000000c,0000000.000s, 009.0C,00002195
2016-01-20 23:23:01 r, 13.95m,0000000233Hz,0000000000c,0000000.000s, 009.0C,00002195
2016-01-20 23:33:03 r, 13.95m,0000000233Hz,0000000000c,0000000.000s, 008.7C,00002195
2016-01-20 23:43:01 r, 14.07m,0000000210Hz,0000000000c,0000000.000s, 009.0C,00002195
2016-01-20 23:53:01 r, 14.20m,0000000186Hz,0000000000c,0000000.000s, 009.0C,00002195
